| time (UTC) | temp C | wind direction | speed KPH | gust KPH | rain 1hr cm | rain 24hr cm | rain mn cm | humidity % | barometer mb |
| 20260504082004 | 15 | 73 | 19.3 | 30.6 | 0.00 | 0.23 | 0.00 | 47 | 1018.1 |
| 20260504081004 | 15 | 75 | 19.3 | 38.6 | 0.00 | 0.23 | 0.00 | 48 | 1017.9 |
| 20260504050004 | 13 | 66 | 14.5 | 27.4 | 0.00 | 0.23 | 0.00 | 51 | 1016.5 |
| 20260504045004 | 13 | 74 | 16.1 | 32.2 | 0.00 | 0.23 | 0.00 | 52 | 1016.5 |
| 20260504044004 | 13 | 71 | 22.5 | 37.0 | 0.00 | 0.23 | 0.00 | 52 | 1016.3 |
| 20260504043004 | 13 | 72 | 12.9 | 27.4 | 0.00 | 0.23 | 0.00 | 57 | 1016.3 |
| 20260504041004 | 13 | 76 | 12.9 | 30.6 | 0.00 | 0.23 | 0.00 | 58 | 1016.2 |
| 20260504040004 | 12 | 72 | 11.3 | 25.7 | 0.00 | 0.23 | 0.00 | 59 | 1016.1 |
| 20260504035004 | 13 | 72 | 14.5 | 25.7 | 0.00 | 0.23 | 0.00 | 58 | 1016.0 |
| 20260504034005 | 12 | 74 | 16.1 | 32.2 | 0.00 | 0.23 | 0.00 | 57 | 1016.0 |
| 20260504031004 | 12 | 75 | 12.9 | 22.5 | 0.00 | 0.23 | 0.00 | 58 | 1016.0 |
| 20260504024004 | 12 | 73 | 14.5 | 35.4 | 0.00 | 0.23 | 0.00 | 59 | 1015.7 |
| 20260504023004 | 12 | 73 | 16.1 | 38.6 | 0.00 | 0.23 | 0.00 | 60 | 1015.6 |
| 20260504022004 | 12 | 73 | 11.3 | 20.9 | 0.00 | 0.23 | 0.00 | 62 | 1015.7 |
| 20260504020004 | 12 | 73 | 12.9 | 27.4 | 0.00 | 0.23 | 0.00 | 59 | 1015.8 |
| 20260504015004 | 12 | 75 | 16.1 | 35.4 | 0.00 | 0.23 | 0.00 | 59 | 1015.7 |
| 20260504014004 | 12 | 79 | 11.3 | 30.6 | 0.00 | 0.23 | 0.00 | 60 | 1015.8 |
| 20260504013004 | 12 | 73 | 14.5 | 37.0 | 0.00 | 0.23 | 0.00 | 59 | 1016.0 |
| 20260504012004 | 12 | 72 | 17.7 | 38.6 | 0.00 | 0.23 | 0.00 | 59 | 1015.9 |
| 20260504011004 | 12 | 72 | 19.3 | 45.1 | 0.00 | 0.23 | 0.00 | 58 | 1015.9 |
| 20260504010005 | 13 | 77 | 24.1 | 51.5 | 0.00 | 0.23 | 0.00 | 59 | 1015.6 |
| 20260504005004 | 13 | 72 | 20.9 | 38.6 | 0.00 | 0.23 | 0.00 | 58 | 1015.8 |
| 20260504004004 | 13 | 71 | 22.5 | 41.8 | 0.00 | 0.23 | 0.00 | 58 | 1015.7 |
| 20260504001004 | 12 | 72 | 19.3 | 30.6 | 0.00 | 0.23 | 0.00 | 59 | 1015.6 |
| 20260503235004 | 12 | 71 | 20.9 | 40.2 | 0.00 | 0.23 | 0.00 | 59 | 1015.7 |
| 20260503234004 | 12 | 69 | 24.1 | 40.2 | 0.00 | 0.23 | 0.00 | 58 | 1015.6 |
| 20260503233004 | 13 | 73 | 27.4 | 40.2 | 0.00 | 0.23 | 0.00 | 59 | 1015.6 |
| 20260503232004 | 13 | 70 | 29.0 | 46.7 | 0.00 | 0.23 | 0.00 | 57 | 1015.6 |
| 20260503230004 | 13 | 73 | 33.8 | 54.7 | 0.00 | 0.23 | 0.00 | 57 | 1015.3 |
| 20260503225004 | 13 | 70 | 27.4 | 54.7 | 0.00 | 0.23 | 0.00 | 61 | 1015.5 |
| 20260503222004 | 13 | 70 | 22.5 | 49.9 | 0.00 | 0.23 | 0.00 | 60 | 1015.6 |
| 20260503221004 | 13 | 66 | 30.6 | 40.2 | 0.00 | 0.23 | 0.00 | 58 | 1015.5 |
| 20260503214956 | 13 | 71 | 30.6 | 61.2 | 0.00 | 0.23 | 0.00 | 61 | 1015.7 |
| 20260503213956 | 13 | 65 | 29.0 | 46.7 | 0.00 | 0.23 | 0.00 | 59 | 1015.4 |
| 20260503212956 | 13 | 69 | 33.8 | 46.7 | 0.00 | 0.23 | 0.00 | 58 | 1015.5 |
| 20260503211956 | 13 | 68 | 30.6 | 69.2 | 0.00 | 0.23 | 0.00 | 59 | 1015.6 |
| 20260503210956 | 13 | 67 | 25.7 | 41.8 | 0.00 | 0.23 | 0.00 | 59 | 1015.6 |
| 20260503205956 | 13 | 73 | 22.5 | 45.1 | 0.00 | 0.23 | 0.00 | 59 | 1015.6 |
| 20260503203956 | 13 | 71 | 22.5 | 45.1 | 0.00 | 0.23 | 0.23 | 60 | 1015.4 |
| 20260503202956 | 13 | 70 | 22.5 | 40.2 | 0.00 | 0.23 | 0.23 | 61 | 1015.5 |
| 20260503201956 | 13 | 69 | 24.1 | 46.7 | 0.03 | 0.23 | 0.23 | 62 | 1015.3 |
| 20260503200956 | 13 | 67 | 22.5 | 45.1 | 0.03 | 0.23 | 0.23 | 63 | 1015.5 |
| 20260503195956 | 12 | 65 | 25.7 | 51.5 | 0.03 | 0.23 | 0.23 | 65 | 1015.4 |
| 20260503194956 | 12 | 69 | 19.3 | 49.9 | 0.05 | 0.23 | 0.23 | 70 | 1015.3 |
| 20260503193956 | 11 | 70 | 17.7 | 41.8 | 0.05 | 0.23 | 0.23 | 69 | 1015.4 |
| 20260503192956 | 12 | 65 | 27.4 | 48.3 | 0.05 | 0.23 | 0.23 | 66 | 1015.7 |
| 20260503190956 | 12 | 72 | 27.4 | 45.1 | 0.03 | 0.20 | 0.20 | 68 | 1015.1 |
| 20260503184956 | 13 | 55 | 19.3 | 40.2 | 0.05 | 0.18 | 0.18 | 64 | 1014.8 |
| 20260503183956 | 13 | 62 | 22.5 | 48.3 | 0.08 | 0.18 | 0.18 | 65 | 1014.9 |
| 20260503181956 | 12 | 68 | 19.3 | 45.1 | 0.08 | 0.18 | 0.18 | 70 | 1014.7 |
| 20260503180956 | 12 | 74 | 24.1 | 37.0 | 0.08 | 0.18 | 0.18 | 72 | 1014.4 |
| 20260503175956 | 12 | 69 | 24.1 | 41.8 | 0.05 | 0.15 | 0.15 | 71 | 1014.2 |
| 20260503173956 | 12 | 65 | 27.4 | 49.9 | 0.00 | 0.10 | 0.10 | 67 | 1014.5 |
| 20260503172956 | 13 | 73 | 30.6 | 48.3 | 0.00 | 0.10 | 0.10 | 63 | 1014.0 |
| 20260503171956 | 13 | 67 | 27.4 | 41.8 | 0.00 | 0.10 | 0.10 | 63 | 1013.8 |
| 20260503170956 | 13 | 67 | 24.1 | 41.8 | 0.00 | 0.10 | 0.10 | 63 | 1014.1 |
| 20260503150956 | 12 | 56 | 14.5 | 49.9 | 0.00 | 0.10 | 0.10 | 69 | 1013.6 |
| 20260503130956 | 12 | 41 | 17.7 | 51.5 | 0.00 | 0.10 | 0.10 | 62 | 1013.7 |